EHI
0 0 0 0 0 0 0 0 0 0 0 0 0 0 0 0 0 0 0 0 0 0 0 0 0 0 0 0 0 0 0 0 0 0 0 0 0 0
0 0 0 0 0 0 0 0 0 0 0 0 0 0 0 0 0 0 0 0 0 0 0 0 0 0 0 0 0 0 0 0 0 0 0 0 0 0
0 0 0 0 0 0 0 0 0 0 0 0 0 0 0 0 0 0 0 0 0 0 0 0 0 0 0 0 0 0 0 0 0 0 0 0 0 0
0 0 0 0 0 0 0 0 0 0 0 0 0 0 0 0 0 0 0 0 0 0 0 0 0 0 0 0 0 0 0 0 0 0 0 0 0 0
0 0 0 0 0 0 0 0 0 0 0 0 0 0 0 0 0 0 0 0 0 0 0 0 0 0 0 0 0 0 0 0 0 0 0 0 0 0
0 0 0 0 0 0 0 0 0 0 0 0 0 0 0 0 0 0 0 0 0 0 0 0 0 0 0 0 0 0 0 0 0 0 0 0 0 0
0 0 0 0 0 0 0 0 0 0 0 0 0 0 0 0 0 0 0 0 0 0 0 0 0 0 0 0 0 0 0 0 0 0 0 0 0 0
0 0 0 0 0 0 0 0 0 0 0 0 0 0 0 0 0 0 0 0 0 0 0 0 0 0 0 0 0 0 0 0 0 0 0 0 0 0
0 0 0 0 0 0 0 0 0 0 0 0 0 0 0 0 0 0 0 0 0 0 0 0 0 0 0 0 0 0 0 0 0 0 0 0 0 0
0 0 0 0 0 0 0 0 0 0 0 0 0 0 0 0 0 0 0 0 0 0 0 0 0 0 0 0 0 0 0 0 0 0 0 0 0 0
0 0 0 0 0 0 0 0 0 0 0 0 0 0 0 0 0 0 0 0 0 0 0 0 0 0 0 0 0 0 0 0 0 0 0 0 0 0
0 0 0 0 0 0 0 0 0 0 0 0 0 0 0 0 0 0 0 0 0 0 0 0 0 0 0 0 0 0 0 0 0 0 0 0 0 0
0 0 0 0 0 0 0 0 0 0 0 0 0 0 0 0 0 0 0 0 0 0 0 0 0 0 0 0 0 0 0 0 0 0 0 0 0 0
0 0 0 0 0 0 0 0 0 0 0 0 0 0 0 0 0 0 0 0 0 0 0 0 0 0 0 0 0 0 0 0 0 0 0 0 0 0
0 0 0 0 0 0 0 0 0 0 0 0 0 0 0 0 0 0 0 0 0 0 0 0 0 0 0 0 0 0 0 0 0 0 0 0 0 0
0 0 0 0 0 0 0 0 0 0 0 0 0 0 0 0 0 0 0 0 0 0 0 0 0 0 0 0 0 0 0 0 0 0 0 0 0 0
0 0 0 0 0 0 0 0 0 0 0 0 0 0 0 0 0 0 0 0 0 0 0 0 0 0 0 0 0 0 0 0 0 0 0 0 0 0
0 0 0 0 0 0 0 0 0 0 0 0 0 0 0 0 0 0 0 0 0 0 0 0 0 0 0 0 0 0 0 0 0 0 0 0 0 0
0 0 0 0 0 0 0 0 0 0 0 0 0 0 0 0 0 0 0 0 0 0 0 0 0 0 0 0 0 0 0 0 0 0 0 0 0 0
0 0 0 0 0 0 0 0 0 0 0 0 0 0 0 0 0 0 0 0 0 0 0 0 0 0 0 0 0 0 0 0 0 0 0 0 0 0
0 0 0 0 0 0 0 0 0 0 0 0 0 0 0 0 0 0 0 0 0 0 0 0 0 0 0 0 0 0 0 0 0 0 0 0 0 0
0 0 0 0 0 0 0 0 0 0 0 0 0 0 0 0 0 0 0 0 0 0 0 0 0 0 0 0 0 0 0 0 0 0 0 0 0 0
0 0 0 0 0 0 0 0 0 0 0 0 0 0 0 0 0 0 0 0 0 0 0 0 0 0 0 0 0 0 0 0 0 0 0 0 0 0
Wind_Speed
2 2 2 1 1 1 0 1 2 2 2 2 1 1 1 1 2 1 2 5 5 6 6 6 6 7 7 8 8 8 9 9 9 9 9 9 9 9
1 2 1 1 1 1 1 1 1 2 2 2 1 1 1 2 3 2 3 5 5 6 6 5 6 6 6 7 8 8 9 9 9 9 9 9 9 9
1 1 2 1 1 1 1 1 1 1 2 2 1 1 1 2 2 2 2 2 2 5 6 5 6 6 6 7 7 8 8 9 9 9 9 9 9 9
1 1 1 1 1 1 1 1 1 1 1 2 2 1 1 2 2 2 2 2 2 5 6 5 6 7 6 7 7 8 8 8 9 9 9 9 9 9
1 1 1 1 1 1 1 1 1 1 1 1 2 1 1 1 1 2 2 2 2 4 4 5 5 6 6 7 7 7 8 8 8 8 8 9 9 10
1 1 1 1 1 1 1 2 2 1 1 1 1 1 1 1 1 1 2 2 2 3 3 4 5 6 6 6 6 7 7 8 8 8 8 8 9 10
1 1 2 2 2 2 1 2 2 2 2 1 1 1 1 1 1 1 2 3 3 2 2 2 2 2 3 4 5 6 7 7 8 8 8 9 9 10
2 1 2 2 2 3 3 2 2 3 3 2 2 2 2 2 1 1 2 2 3 2 2 3 2 2 2 2 4 6 6 7 7 8 8 9 9 10
2 2 1 2 2 2 3 4 4 4 4 3 3 3 3 3 2 2 2 2 3 3 2 3 2 2 3 3 6 6 6 7 7 8 8 8 9 10
3 2 2 2 2 2 2 2 3 3 4 3 3 4 3 3 4 3 3 3 3 2 1 2 2 3 3 3 5 5 6 6 7 8 8 8 9 10
2 2 2 3 4 3 2 3 3 3 3 4 4 4 4 3 2 1 1 1 3 2 1 1 2 3 3 2 3 5 6 6 7 8 8 8 9 9
2 2 3 3 4 4 3 3 4 3 2 2 2 3 2 3 3 3 3 2 2 2 1 1 1 1 3 2 2 2 3 6 8 8 9 9 9 5
2 2 2 4 5 5 4 3 4 3 2 2 2 1 1 2 2 2 3 3 3 3 2 1 1 1 2 3 3 2 2 2 3 4 7 9 9 6
2 2 2 3 4 5 4 3 4 2 1 1 1 1 2 2 2 2 3 3 4 4 4 2 2 2 2 3 3 3 2 2 2 3 3 6 7 8
2 3 3 4 4 3 3 3 2 1 1 1 2 2 2 2 2 1 2 2 2 2 2 2 2 2 2 3 3 2 3 2 2 2 2 3 3 3
2 2 3 2 2 2 2 2 1 1 2 2 2 2 2 1 1 1 1 1 1 2 2 1 2 2 3 3 3 3 2 2 2 3 3 3 3 3
1 1 0 0 1 1 1 1 1 1 2 2 2 2 2 2 2 1 1 1 2 2 2 1 1 1 2 2 2 3 3 3 3 2 3 4 3 3
1 1 1 1 2 2 2 2 1 2 2 2 2 2 2 2 2 2 1 2 2 2 2 1 1 2 2 2 3 3 3 3 2 2 2 3 4 3
1 2 2 2 2 2 2 2 2 2 2 2 2 2 2 2 2 2 2 2 3 2 2 1 1 1 3 4 3 3 2 2 2 2 2 2 4 4
2 2 2 2 2 2 2 2 2 2 2 2 2 2 3 3 3 3 3 3 3 3 2 2 2 3 4 3 2 3 4 2 2 3 3 2 3 4
3 3 2 2 2 2 2 2 2 2 2 2 2 3 3 3 3 3 3 4 3 3 3 4 4 4 1 0 1 2 2 3 3 2 2 2 3 3
3 3 2 3 2 2 2 2 2 2 3 3 3 3 3 3 3 4 3 3 3 3 3 2 1 1 1 2 2 2 2 3 3 3 3 2 1 2
3 3 2 2 2 2 2 2 3 2 2 2 2 3 3 3 3 3 3 3 3 3 2 1 1 1 1 1 2 1 2 2 2 2 3 4 5 6
Wind_Direction
175 176 182 201 198 193 168 168 181 243 259 249 259 264 271 265 298 287 284 299 312 311 313 321 326 328 328 328 326 326 326 326 324 321 317 317 317 319
177 164 179 194 191 197 196 219 204 202 248 249 247 261 295 311 303 293 284 307 311 310 310 314 318 322 325 324 325 326 325 324 323 322 321 318 317 317
143 180 197 195 195 207 198 217 241 184 241 284 301 286 240 276 295 289 286 271 288 310 310 308 314 317 320 319 320 321 322 323 324 322 321 320 319 322
171 169 212 183 196 206 188 213 244 232 210 264 290 275 260 254 278 289 301 299 283 298 305 307 314 318 318 317 319 323 323 323 322 321 321 322 322 322
188 188 216 178 211 209 194 214 237 264 234 234 267 270 276 283 296 299 297 297 303 297 294 309 321 328 327 328 328 328 328 327 325 326 326 326 328 327
189 192 192 195 218 220 216 223 224 225 228 238 255 261 279 288 274 289 305 307 303 306 303 306 309 321 323 328 336 338 338 338 337 338 337 336 334 332
199 195 198 199 217 222 227 215 208 209 212 231 256 274 286 290 272 275 294 309 298 297 301 299 304 305 308 312 321 329 334 336 338 340 340 337 335 332
218 234 225 213 223 233 243 233 215 207 213 220 238 243 253 252 261 287 303 312 294 292 307 296 293 289 290 285 307 319 328 333 336 337 338 336 334 331
215 222 238 234 226 231 246 247 242 245 233 217 228 234 233 232 227 246 257 263 270 275 291 282 277 279 290 295 299 310 323 328 332 333 332 331 331 331
218 213 214 224 229 227 229 233 238 244 243 229 228 235 232 221 214 228 244 270 294 277 258 268 283 289 301 294 289 300 315 322 328 330 328 328 331 329
228 219 219 223 239 235 226 236 249 261 272 262 259 260 272 271 255 198 248 289 295 282 241 247 288 309 294 275 293 308 315 317 321 322 323 325 326 326
243 232 235 243 245 236 222 223 239 252 262 282 273 270 256 248 248 209 202 230 279 275 238 231 263 328 302 281 285 297 303 305 310 315 318 321 323 326
236 238 244 254 252 255 248 234 249 256 240 247 253 253 250 241 240 230 212 213 230 252 236 214 254 261 257 291 293 280 284 298 304 307 309 314 317 321
241 238 242 255 259 260 254 262 266 267 238 248 261 258 257 258 256 251 243 236 233 239 228 216 234 239 261 282 285 294 296 286 292 302 306 308 310 313
258 270 270 267 263 260 263 262 254 240 234 246 258 266 266 259 259 268 270 261 273 269 230 225 232 238 241 258 275 287 302 294 287 304 308 307 306 309
261 268 273 269 279 291 287 268 254 242 236 242 255 261 271 268 257 264 280 284 283 295 290 258 246 237 252 261 262 276 281 281 298 305 304 301 298 292
255 251 236 242 249 255 259 255 249 259 261 257 254 264 272 277 279 275 270 276 257 273 300 314 308 288 260 240 259 267 271 285 284 301 311 303 298 297
206 210 224 230 237 244 250 258 250 245 248 250 252 253 258 260 272 276 266 254 258 259 261 277 330 339 328 289 237 256 267 274 287 289 297 297 300 307
218 225 232 236 242 248 251 256 257 254 253 250 252 257 262 263 266 264 256 261 265 260 252 229 231 253 272 282 278 240 255 285 294 294 284 279 285 294
230 231 235 235 238 240 244 251 256 263 263 256 254 254 252 254 260 262 255 256 265 266 254 230 223 229 242 260 273 279 256 255 274 287 296 294 290 293
235 236 237 238 241 243 245 249 249 251 260 266 260 258 255 251 253 258 256 261 260 254 250 248 247 254 252 238 281 298 296 264 264 270 291 306 313 319
230 234 236 236 238 240 245 246 248 251 254 255 261 261 256 251 255 256 253 252 251 255 259 261 234 206 203 235 264 282 308 323 312 298 281 262 256 271
234 234 235 237 238 236 238 244 246 248 253 258 259 261 264 264 261 255 255 252 253 256 254 243 229 229 234 233 255 277 297 315 326 335 327 316 297 285